Погода в Баранове

Россия / Курская область     51°24′04″N   37°43′57″E
темп.,
°C
ветер,
м/с
пор.,
м/с
влажн.,
%
обл.,
%
осадки,
мм/ч
давл.,
гПа
погр.,
м
25 февраля, чт
чт2500:00−11ююз4896100 0.3 1034270
03:00−9ююз4996100 0.7 1032304
06:00−7юз4995100 0.3 1029283
09:00−4юз5995100 0.4 1027345
12:000зюз51197100 0.0 1025406
15:00+1зюз613100100 0.1 1022384
18:00+2з613100100 0.6 1021343
21:00+2зсз51199100 0.7 1021306
26 февраля, пт
пт2600:00+2з51199100 0.3 1021283
03:00+1зсз51299100 0.4 1021308
06:00+1з51099100 0.0 1020278
09:00+2з51199100 0.0 1019303
12:00+2з612100100 0.0 1018339
15:00+2з815100100 0.0 1016480
18:00+2з71498100 0.1 1014424
21:00+2з61496100 0.2 1014374
27 февраля, сб
сб2700:00+1з51196100 0.0 1013435
03:00+1з51095100 0.0 1012356
06:00+1з61297100 0.0 1010464
09:00+1зсз61198100 0.1 1010520
12:00+1з61199100 0.1 1009554
15:00+1з61199100 0.3 1010550
18:00+1зсз51097100 0.1 1009436
21:000зсз5997100 0.6 1011443
28 февраля, вс
вс2800:000сз4897100 0.1 1011383
03:000ссз4893100 0.2 1012442
06:00−1с499599 0.1 1014469
09:00−1с5108999 0.1 1015725
12:00−2с588793 0.0 1017579
15:00−2с588696 0.1 1018701
18:00−2с4886100 0.0 1020724
21:00−2сз269798 0.3 1022317
1 марта, пн
пн100:00−3с499490 0.1 1024429
03:00−4ссз389673 0.1 1025335
06:00−5ссз379673 0.0 1027235
09:00−5с359047 0.0 1029267
12:00−3ссз358325 0.0 1030681
15:00−2ссз467760 0.1 1030869
18:00−4сз238815 0.0 103151
21:00−5зсз35938 0.0 1031133